User: anonymous   Login
Location: Unspecified
(0.0000°N, 0.0000°E)
Time: 10:38:44
(UTC+00:00)
Language:

GALILEO-FM3 - Orbit

View from above orbital plane
View from above orbital plane
View from above satellite
View from above satellite

Ground track
Ground track

The orbit data is extracted from the following two-line orbital elements,

1 38857U 12055A   22272.11687494  .00000048  00000-0  00000-0 0  9991
2 38857  55.1642 138.8485 0002047 250.7529 109.3353  1.70473685 61873
Epoch (UTC): 29 September 2022 02:48:17
Eccentricity: 0.0002047
inclination: 55.1642°
perigee height: 23216 km
apogee height: 23228 km
right ascension of ascending node: 138.8485°
argument of perigee: 250.7529°
revolutions per day: 1.70473685
mean anomaly at epoch: 109.3353°
orbit number at epoch: 6187

The dashed part of the orbit path shows where the satellite is in the earth's shadow,  

DLR